Weather History for Idabel, OK

Change the Weather History Date:

Tuesday, December 25, 2012

  Actual Average (KDEQ) Record (KDEQ)
Temperature  
Mean Temperature 40 °F 42 °F  
Max Temperature 50 °F 54 °F 78 °F (1955)
Min Temperature 28 °F 30 °F 2 °F (1983)
Degree Days  
Heating Degree Days 25 23  
Month to date heating degree days 544  
Since 1 July heating degree days 1070  
Cooling Degree Days 0 0  
Month to date cooling degree days 0  
Year to date cooling degree days 1941  
Moisture  
Dew Point 33 °F    
Average Humidity 83    
Maximum Humidity 100    
Minimum Humidity 50    
Precipitation  
Precipitation 2.09 in 0.17 in 3.35 in (2012)
Month to date precipitation 3.33  
Year to date precipitation 47.96  
Snow  
Snow 0.00 in - - ()
Month to date snowfall  
Since 1 July snowfall  
Snow Depth -    
Sea Level Pressure  
Sea Level Pressure 29.80 in    
Wind  
Wind Speed 13 mph (NNE)    
Max Wind Speed 24 mph    
Max Gust Speed 31 mph    
Visibility 6 miles    
Events      
T = Trace of Precipitation, MM = Missing Value Source: NWS Daily Summary

Daily Weather History Graph

Daily Weather History Graph

Search for Another Location

Airport:

Trip Planner

Search our weather history database for the weather conditions in past years. The results will help you decide how hot, cold, wet, or windy it might be!

Date:

Astronomy

Dec. 25, 2012 Rise Set
Actual Time 7:22 AM CST 5:16 PM CST
Civil Twilight 6:55 AM CST 5:44 PM CST
Nautical Twilight 6:23 AM CST 6:15 PM CST
Astronomical Twilight 5:53 AM CST 6:46 PM CST
Moon 3:24 PM CST (12/25) 4:57 AM CST (12/25)
Length of Visible Light 10h 49m
Length of Day
9h 54m
Waxing Gibbous, 94% of the Moon is Illuminated
Dec 25
Waxing Gibbous
Dec 28
Full
Jan 4
Last Quarter
Jan 11
New
Jan 18
First Quarter

Hourly Weather History & Observations

Time (CST) Temp. Windchill Dew Point Humidity Pressure Visibility Wind Dir Wind Speed Gust Speed Precip Events Conditions
12:15 AM 46.4 °F 41.5 °F 32.0 °F 57% 29.84 in 10.0 mi East 10.4 mph - N/A   Clear
12:35 AM 46.4 °F 41.1 °F 32.0 °F 57% 29.84 in 10.0 mi East 11.5 mph - N/A   Clear
12:55 AM 46.4 °F 41.5 °F 32.0 °F 57% 29.84 in 10.0 mi East 10.4 mph - N/A   Clear
1:15 AM 46.4 °F 41.1 °F 32.0 °F 57% 29.83 in 10.0 mi East 11.5 mph 18.4 mph N/A   Clear
1:35 AM 46.4 °F 41.1 °F 32.0 °F 57% 29.84 in 10.0 mi East 11.5 mph 17.3 mph N/A   Scattered Clouds
1:55 AM 48.2 °F - 32.0 °F 54% 29.83 in 10.0 mi East 13.8 mph 18.4 mph N/A   Overcast
2:15 AM 48.2 °F - 32.0 °F 54% 29.83 in 10.0 mi East 13.8 mph - N/A   Overcast
2:35 AM 50.0 °F - 32.0 °F 50% 29.83 in 10.0 mi East 11.5 mph 21.9 mph N/A   Overcast
2:55 AM 50.0 °F - 32.0 °F 50% 29.82 in 10.0 mi ENE 10.4 mph - N/A   Overcast
3:15 AM 48.2 °F - 32.0 °F 54% 29.80 in 10.0 mi ENE 13.8 mph 20.7 mph N/A   Overcast
3:35 AM 48.2 °F - 32.0 °F 54% 29.79 in 10.0 mi ENE 17.3 mph 21.9 mph N/A   Overcast
3:55 AM 46.4 °F 39.2 °F 32.0 °F 57% 29.77 in 10.0 mi ENE 18.4 mph 23.0 mph N/A   Overcast
4:15 AM 46.4 °F 43.5 °F 32.0 °F 57% 29.83 in 10.0 mi East 5.8 mph 9.2 mph N/A   Overcast
4:35 AM 44.6 °F 39.7 °F 35.6 °F 71% 29.84 in 2.5 mi NNE 9.2 mph - 0.09 in   Overcast
4:55 AM 42.8 °F 37.5 °F 37.4 °F 81% 29.86 in 1.2 mi North 9.2 mph 17.3 mph 0.26 in   Overcast
5:15 AM 42.8 °F 37.0 °F 37.4 °F 81% 29.81 in 7.0 mi NE 10.4 mph - 0.01 in   Overcast
5:35 AM 41.0 °F 35.2 °F 37.4 °F 87% 29.84 in 10.0 mi ENE 9.2 mph - 0.01 in   Mostly Cloudy
5:55 AM 41.0 °F 33.9 °F 37.4 °F 87% 29.83 in 7.0 mi ENE 12.7 mph - 0.03 in   Overcast
6:15 AM 41.0 °F 32.8 °F 37.4 °F 87% 29.80 in 5.0 mi ENE 16.1 mph 21.9 mph 0.04 in   Overcast
6:35 AM 41.0 °F 33.1 °F 37.4 °F 87% 29.78 in 10.0 mi East 15.0 mph 23.0 mph 0.04 in   Scattered Clouds
6:55 AM 41.0 °F 31.9 °F 37.4 °F 87% 29.77 in 10.0 mi East 19.6 mph 24.2 mph 0.05 in   Scattered Clouds
7:15 AM 41.0 °F 32.5 °F 37.4 °F 87% 29.77 in 10.0 mi ENE 17.3 mph 26.5 mph N/A   Mostly Cloudy
7:35 AM 41.0 °F 31.6 °F 37.4 °F 87% 29.74 in 10.0 mi ENE 20.7 mph 26.5 mph N/A   Overcast
7:55 AM 41.0 °F 32.8 °F 37.4 °F 87% 29.79 in 7.0 mi East 16.1 mph 20.7 mph 0.01 in   Overcast
8:15 AM 41.0 °F 34.7 °F 37.4 °F 87% 29.80 in 5.0 mi ENE 10.4 mph 19.6 mph 0.05 in   Overcast
8:35 AM 41.0 °F 32.2 °F 37.4 °F 87% 29.74 in 3.0 mi NE 18.4 mph 24.2 mph 0.16 in   Overcast
8:55 AM 41.0 °F 33.1 °F 37.4 °F 87% 29.75 in 4.0 mi ENE 15.0 mph 23.0 mph 0.23 in   Overcast
9:15 AM 41.0 °F 33.5 °F 37.4 °F 87% 29.75 in 4.0 mi East 13.8 mph 21.9 mph 0.06 in   Overcast
9:35 AM 41.0 °F 33.9 °F 37.4 °F 87% 29.75 in 5.0 mi East 12.7 mph 16.1 mph 0.10 in   Overcast
9:55 AM 41.0 °F 33.9 °F 37.4 °F 87% 29.74 in 4.0 mi ENE 12.7 mph - 0.13 in   Overcast
10:15 AM 41.0 °F 32.5 °F 37.4 °F 87% 29.70 in 5.0 mi ENE 17.3 mph 24.2 mph 0.03 in   Overcast
10:35 AM 41.0 °F 32.2 °F 37.4 °F 87% 29.68 in 4.0 mi ENE 18.4 mph 29.9 mph 0.08 in   Overcast
10:55 AM 39.2 °F 30.8 °F 35.6 °F 87% 29.69 in 4.0 mi ENE 15.0 mph 28.8 mph 0.15 in   Overcast
11:15 AM 39.2 °F 31.6 °F 35.6 °F 87% 29.69 in 4.0 mi NE 12.7 mph 17.3 mph 0.07 in   Overcast
11:35 AM 39.2 °F 30.5 °F 35.6 °F 87% 29.69 in 4.0 mi ENE 16.1 mph 21.9 mph 0.16 in   Overcast
11:55 AM 37.4 °F 28.9 °F 35.6 °F 93% 29.68 in 3.0 mi NE 13.8 mph 18.4 mph 0.27 in   Overcast
12:15 PM 37.4 °F 28.5 °F 35.6 °F 93% 29.67 in 3.0 mi NE 15.0 mph 20.7 mph 0.11 in   Overcast
12:35 PM 37.4 °F 28.9 °F 35.6 °F 93% 29.66 in 4.0 mi NE 13.8 mph 18.4 mph 0.21 in   Overcast
12:55 PM 37.4 °F 29.8 °F 35.6 °F 93% 29.66 in 3.0 mi NE 11.5 mph 19.6 mph 0.34 in   Overcast
1:35 PM 39.2 °F 32.5 °F 37.4 °F 93% 29.69 in 2.5 mi North 10.4 mph - 0.20 in   Overcast
1:55 PM 37.4 °F 27.8 °F 35.6 °F 93% 29.69 in 2.5 mi North 17.3 mph 23.0 mph 0.32 in   Overcast
2:15 PM 35.6 °F 26.6 °F 33.8 °F 93% 29.71 in 2.5 mi North 13.8 mph 21.9 mph 0.08 in   Overcast
2:35 PM 33.8 °F 23.9 °F 32.0 °F 93% 29.71 in 4.0 mi North 15.0 mph 23.0 mph 0.15 in   Overcast
2:55 PM 32.0 °F 22.5 °F 32.0 °F 100% 29.72 in 2.0 mi North 12.7 mph - 0.18 in   Overcast
3:15 PM 32.0 °F 21.2 °F 32.0 °F 100% 29.71 in 4.0 mi North 16.1 mph 24.2 mph 0.02 in   Overcast
3:35 PM 32.0 °F 20.8 °F 32.0 °F 100% 29.70 in 5.0 mi North 17.3 mph 26.5 mph 0.05 in   Overcast
3:55 PM 32.0 °F 20.8 °F 32.0 °F 100% 29.71 in 4.0 mi North 17.3 mph 25.3 mph 0.08 in   Overcast
4:15 PM 32.0 °F 20.1 °F 32.0 °F 100% 29.72 in 1.5 mi North 19.6 mph 25.3 mph 0.03 in   Overcast
4:55 PM 32.0 °F 20.5 °F 32.0 °F 100% 29.74 in 0.5 mi NNW 18.4 mph 27.6 mph 0.04 in   Overcast
5:35 PM 32.0 °F 18.9 °F 30.2 °F 93% 29.77 in 0.8 mi NNW 24.2 mph 31.1 mph N/A   Overcast
5:55 PM 32.0 °F 20.1 °F 30.2 °F 93% 29.79 in 0.8 mi NNW 19.6 mph 25.3 mph N/A   Overcast
6:15 PM 32.0 °F 19.5 °F 30.2 °F 93% 29.79 in 0.8 mi North 21.9 mph 29.9 mph N/A   Overcast
6:35 PM 32.0 °F 20.5 °F 30.2 °F 93% 29.81 in 0.8 mi NNW 18.4 mph 26.5 mph N/A   Overcast
6:55 PM 32.0 °F 21.6 °F 30.2 °F 93% 29.83 in 1.2 mi NNW 15.0 mph 24.2 mph N/A   Overcast
7:15 PM 32.0 °F 20.8 °F 30.2 °F 93% 29.84 in 1.0 mi NNW 17.3 mph 23.0 mph N/A   Overcast
7:35 PM 32.0 °F 22.1 °F 30.2 °F 93% 29.86 in 1.2 mi NNW 13.8 mph 20.7 mph N/A   Overcast
7:55 PM 32.0 °F 20.1 °F 30.2 °F 93% 29.88 in 3.0 mi NNW 19.6 mph 25.3 mph N/A   Overcast
8:15 PM 32.0 °F 22.1 °F 30.2 °F 93% 29.88 in 7.0 mi NNW 13.8 mph 21.9 mph N/A   Scattered Clouds
8:35 PM 32.0 °F 21.2 °F 30.2 °F 93% 29.89 in 10.0 mi NNW 16.1 mph 21.9 mph N/A   Scattered Clouds
8:55 PM 32.0 °F 22.1 °F 30.2 °F 93% 29.90 in 10.0 mi North 13.8 mph 21.9 mph N/A   Scattered Clouds
9:15 PM 32.0 °F 22.1 °F 28.4 °F 87% 29.92 in 10.0 mi NNW 13.8 mph 19.6 mph N/A   Scattered Clouds
9:35 PM 32.0 °F 22.1 °F 28.4 °F 87% 29.92 in 10.0 mi NNW 13.8 mph 20.7 mph N/A   Scattered Clouds
10:15 PM 32.0 °F 23.6 °F 28.4 °F 87% 29.94 in 10.0 mi NNW 10.4 mph - N/A   Scattered Clouds
10:35 PM 32.0 °F 23.0 °F 28.4 °F 87% 29.95 in 10.0 mi NNW 11.5 mph 16.1 mph N/A   Clear
10:55 PM 30.2 °F 21.3 °F 28.4 °F 93% 29.97 in 7.0 mi NW 10.4 mph - N/A   Clear
11:15 PM 30.2 °F 21.9 °F 26.6 °F 86% 29.98 in 7.0 mi WNW 9.2 mph - N/A   Clear
11:35 PM 30.2 °F 21.3 °F 26.6 °F 86% 29.99 in 7.0 mi WNW 10.4 mph - N/A   Mostly Cloudy
11:55 PM 28.4 °F 18.0 °F 26.6 °F 93% 30.00 in 7.0 mi NW 12.7 mph 17.3 mph N/A   Mostly Cloudy